Location: Drocourt
(49.0571°N, 1.7669°E)
Time: 10:51:36
(UTC+00:00)

Transit 4A - Pass Details

Date: 17 April 2024
Orbit: 871 x 971 km, 66.8° (Epoch: 24 May)

Event Time Altitude Azimuth Distance (km) Brightness Sun altitude
Rises 12:51:23 0° 193° (SSW) 3,539 11.6 49.8°
Reaches altitude 10° 12:54:00 10° 187° (S) 2,585 11.1 49.6°
Maximum altitude 12:59:40 46° 116° (ESE) 1,180 9.1 49.2°
Drops below altitude 10° 13:05:15 10° 45° (NE) 2,547 9.9 48.8°
Sets 13:07:48 0° 39° (NE) 3,481 10.5 48.6°
